Ariane H10 - Orbit

View from above orbital plane
View from above orbital plane
View from above satellite
View from above satellite

Ground track
Ground track

The orbit data is extracted from the following two-line orbital elements,

1 21727U 91067B   13140.71642759  .00000366  00000-0  11369-2 0   530
2 21727 004.0401 227.0710 7201634 016.6412 047.8532 02.30904905143450
Epoch (UTC): 20 May 2013 17:11:39
Eccentricity: 0.7201634
inclination: 4.0401°
perigee height: 388 km
apogee height: 35214 km
right ascension of ascending node: 227.0710°
argument of perigee: 16.6412°
revolutions per day: 2.30904905
mean anomaly at epoch: 47.8532°
orbit number at epoch: 14345

The dashed part of the orbit path shows where the satellite is in the earth's shadow,  

Developed and maintained by Chris Peat, Heavens-Above GmbH. Please read the updated FAQ before sending e-mail. Imprint. DLR